Nambouwalu, Fiji
Current Conditions -  °F | °C
As of 1:00 AM on Sunday 21 Dec 2014 (Local Time) from NFNA Reporting Station
Rain Showers Rain Showers  
Wind Chill: 75°   Ceiling: 4500
Heat Index: 75°   Visibility: 6mi
Dew Point: 75°   Wind: 0mph
Humidity: 100%   Direction: NA
Pressure: 29.8"   Gusts: NA
Location:  16.99°S, 178.69°E
Report Text: NFNA 201300Z 00000KT 10KM -SHRA SCT018 BKN045 24/24 Q1009 RMKRR 2.5
Loading
Personal Weather Stations






























Interactive Weather Map New forecast layout! Learn more

10-Day Weather Forecast

Advertisements
Track Severe Weather on mobile